DFKAM EDBJ-EHBK

Flight info

Callsign DFKAM
Flight time 1h 10m
Altitude 26000
Route EFD DCT ERSIL/N0274F240 Y221 BEBLA DCT BATEB/N0266F120 T841 ERNEP DCT COL DCT NVO
Aircraft PC12/L-SDFGRWY/S

Departure

Time 2026-05-04 08:24
Airport Jena-Schöngleina Airfield (EDBJ)

Arrival

Time 2026-05-04 09:34
Airport Maastricht Aachen Airport (EHBK)
Time Latitude Longitude Altitude Speed Heading
2026-05-04 07:31 50.91435 11.71660 1234 ft 0 kts 164°
2026-05-04 07:58 50.91439 11.71679 1233 ft 0 kts 164°
2026-05-04 07:58 50.91436 11.71660 1233 ft 0 kts 164°
2026-05-04 07:58 50.91435 11.71660 1233 ft 0 kts 164°
2026-05-04 08:17 50.91432 11.71667 1233 ft 2 kts 107°
2026-05-04 08:17 50.91445 11.71689 1233 ft 7 kts
2026-05-04 08:19 50.91672 11.71492 1232 ft 22 kts 20°
2026-05-04 08:19 50.91815 11.71576 1231 ft 20 kts 21°
2026-05-04 08:20 50.91925 11.71643 1229 ft 17 kts 22°
2026-05-04 08:20 50.92015 11.71718 1226 ft 13 kts 36°
2026-05-04 08:20 50.92034 11.71720 1226 ft 2 kts 310°
2026-05-04 08:20 50.92036 11.71711 1226 ft 0 kts 264°
2026-05-04 08:21 50.92032 11.71704 1226 ft 2 kts 212°
2026-05-04 08:21 50.92029 11.71702 1226 ft 0 kts 193°
2026-05-04 08:21 50.92028 11.71702 1226 ft 0 kts 193°
2026-05-04 08:21 50.91986 11.71680 1226 ft 24 kts 202°
2026-05-04 08:22 50.91684 11.71498 1232 ft 68 kts 201°
2026-05-04 08:22 50.91342 11.71292 1242 ft 89 kts 201°
2026-05-04 08:24 50.88934 11.63778 3543 ft 132 kts 261°
2026-05-04 08:24 50.88847 11.62368 4088 ft 128 kts 275°
2026-05-04 08:24 50.89072 11.60952 4429 ft 136 kts 284°
2026-05-04 08:24 50.89314 11.59485 4800 ft 139 kts 282°
2026-05-04 08:25 50.89542 11.57966 5168 ft 144 kts 281°
2026-05-04 08:25 50.89767 11.56427 5539 ft 142 kts 281°
2026-05-04 08:25 50.90058 11.54396 6045 ft 143 kts 281°
2026-05-04 08:25 50.90207 11.53352 6300 ft 145 kts 281°
2026-05-04 08:26 50.90433 11.51758 6654 ft 153 kts 281°
2026-05-04 08:27 50.92198 11.39331 10089 ft 171 kts 280°
2026-05-04 08:28 50.92455 11.37508 10566 ft 172 kts 279°
2026-05-04 08:28 50.92717 11.35654 11073 ft 172 kts 280°
2026-05-04 08:28 50.92979 11.33794 11578 ft 173 kts 280°
2026-05-04 08:28 50.93242 11.31924 12076 ft 175 kts 280°
2026-05-04 08:29 50.93507 11.30037 12578 ft 176 kts 280°
2026-05-04 08:29 50.93775 11.28128 13074 ft 177 kts 280°
2026-05-04 08:29 50.94044 11.26212 13557 ft 179 kts 280°
2026-05-04 08:31 50.95967 11.12419 16487 ft 188 kts 279°
2026-05-04 08:33 50.97970 10.97914 19128 ft 196 kts 278°
2026-05-04 08:33 50.98258 10.95789 19459 ft 197 kts 275°
2026-05-04 08:35 50.99824 10.80654 21885 ft 201 kts 274°
2026-05-04 08:35 51.00050 10.78456 22243 ft 202 kts 274°
2026-05-04 08:35 51.00273 10.76285 22592 ft 202 kts 274°
2026-05-04 08:35 51.00499 10.74079 22949 ft 203 kts 274°
2026-05-04 08:37 51.01865 10.60652 24847 ft 207 kts 274°
2026-05-04 08:37 51.02094 10.58386 25143 ft 208 kts 274°
2026-05-04 08:37 51.02324 10.56109 25437 ft 209 kts 274°
2026-05-04 08:38 51.02554 10.53825 25729 ft 210 kts 274°
2026-05-04 08:38 51.02784 10.51531 26005 ft 212 kts 274°
2026-05-04 08:38 51.03021 10.49141 26017 ft 225 kts 274°
2026-05-04 08:40 51.04875 10.30532 26021 ft 242 kts 274°
2026-05-04 08:40 51.05058 10.27896 26023 ft 236 kts 265°
2026-05-04 08:40 51.05021 10.25293 26021 ft 235 kts 264°
2026-05-04 08:41 51.04981 10.22704 26024 ft 234 kts 264°
2026-05-04 08:41 51.04950 10.20114 26025 ft 234 kts 265°
2026-05-04 08:41 51.04921 10.17542 26022 ft 233 kts 265°
2026-05-04 08:41 51.04889 10.15007 26023 ft 232 kts 264°
2026-05-04 08:42 51.04856 10.12445 26022 ft 232 kts 264°
2026-05-04 08:42 51.04822 10.09886 26022 ft 232 kts 264°
2026-05-04 08:42 51.04788 10.07324 26023 ft 232 kts 264°
2026-05-04 08:42 51.04754 10.04761 26020 ft 232 kts 264°
2026-05-04 08:43 51.04719 10.02196 26019 ft 232 kts 264°
2026-05-04 08:43 51.04683 9.99639 26018 ft 232 kts 264°
2026-05-04 08:43 51.04648 9.97084 26031 ft 231 kts 264°
2026-05-04 08:43 51.04611 9.94528 26022 ft 231 kts 264°
2026-05-04 08:44 51.04574 9.91960 26021 ft 232 kts 264°
2026-05-04 08:44 51.04536 9.89401 26021 ft 231 kts 264°
2026-05-04 08:46 51.04254 9.71341 26023 ft 235 kts 264°
2026-05-04 08:46 51.04210 9.68738 26025 ft 236 kts 264°
2026-05-04 08:46 51.04167 9.66124 26020 ft 237 kts 264°
2026-05-04 08:46 51.04117 9.63511 26020 ft 236 kts 264°
2026-05-04 08:47 51.04058 9.60900 26011 ft 236 kts 264°
2026-05-04 08:47 51.03999 9.58299 26014 ft 236 kts 264°
2026-05-04 08:47 51.03943 9.55695 26017 ft 236 kts 264°
2026-05-04 08:47 51.03886 9.53090 26018 ft 236 kts 264°
2026-05-04 08:48 51.03828 9.50482 26013 ft 236 kts 264°
2026-05-04 08:48 51.03769 9.47869 26024 ft 236 kts 263°
2026-05-04 08:48 51.03709 9.45260 26023 ft 237 kts 263°
2026-05-04 08:48 51.03650 9.42646 26022 ft 237 kts 263°
2026-05-04 08:49 51.03589 9.40030 26023 ft 237 kts 263°
2026-05-04 08:50 51.03215 9.24420 26028 ft 236 kts 263°
2026-05-04 08:50 51.03150 9.21817 26028 ft 236 kts 263°
2026-05-04 08:51 51.03085 9.19213 26029 ft 236 kts 263°
2026-05-04 08:51 51.03020 9.16611 26029 ft 236 kts 263°
2026-05-04 08:51 51.02954 9.14014 26029 ft 235 kts 263°
2026-05-04 08:51 51.02887 9.11415 26029 ft 235 kts 263°
2026-05-04 08:52 51.02820 9.08819 26022 ft 235 kts 263°
2026-05-04 08:52 51.02752 9.06222 26024 ft 235 kts 263°
2026-05-04 08:52 51.02684 9.03629 26023 ft 235 kts 263°
2026-05-04 08:52 51.02615 9.01033 26023 ft 235 kts 263°
2026-05-04 08:53 51.02545 8.98439 26023 ft 235 kts 263°
2026-05-04 08:54 51.02044 8.80290 26018 ft 235 kts 263°
2026-05-04 08:55 51.01970 8.77695 26013 ft 235 kts 263°
2026-05-04 08:55 51.01895 8.75101 26016 ft 235 kts 263°
2026-05-04 08:55 51.01820 8.72509 26015 ft 235 kts 263°
2026-05-04 08:55 51.01744 8.69918 26010 ft 235 kts 263°
2026-05-04 08:57 50.99861 8.52244 26013 ft 233 kts 256°
2026-05-04 09:01 50.93965 8.16261 22630 ft 232 kts 244°
2026-05-04 09:01 50.93329 8.13919 22236 ft 231 kts 244°
2026-05-04 09:01 50.92694 8.11585 21842 ft 230 kts 244°
2026-05-04 09:01 50.92060 8.09253 21451 ft 230 kts 244°
2026-05-04 09:02 50.91427 8.06931 21066 ft 229 kts 244°
2026-05-04 09:02 50.90796 8.04617 20683 ft 228 kts 244°
2026-05-04 09:02 50.90168 8.02313 20311 ft 228 kts 244°
2026-05-04 09:02 50.89549 8.00046 19960 ft 227 kts 244°
2026-05-04 09:03 50.88921 7.97750 19596 ft 227 kts 244°
2026-05-04 09:03 50.88293 7.95455 19235 ft 227 kts 243°
2026-05-04 09:03 50.87665 7.93161 18879 ft 226 kts 244°
2026-05-04 09:03 50.87385 7.90708 18518 ft 232 kts 268°
2026-05-04 09:04 50.87517 7.88157 18187 ft 232 kts 270°
2026-05-04 09:04 50.87671 7.85613 17812 ft 231 kts 270°
2026-05-04 09:04 50.87807 7.83081 17455 ft 230 kts 270°
2026-05-04 09:04 50.87934 7.80566 17109 ft 228 kts 270°
2026-05-04 09:05 50.88061 7.78066 16768 ft 227 kts 270°
2026-05-04 09:05 50.88189 7.75581 16424 ft 225 kts 270°
2026-05-04 09:05 50.88315 7.73110 16087 ft 224 kts 270°
2026-05-04 09:05 50.88439 7.70667 15751 ft 222 kts 270°
2026-05-04 09:06 50.88562 7.68237 15411 ft 221 kts 270°
2026-05-04 09:07 50.89389 7.51644 13177 ft 212 kts 270°
2026-05-04 09:08 50.89502 7.49324 12836 ft 211 kts 270°
2026-05-04 09:08 50.89615 7.47015 12520 ft 210 kts 270°
2026-05-04 09:08 50.89726 7.44717 12199 ft 208 kts 270°
2026-05-04 09:08 50.89837 7.42429 11881 ft 207 kts 271°
2026-05-04 09:09 50.89909 7.40924 11676 ft 207 kts 271°
2026-05-04 09:09 50.90018 7.38656 11384 ft 206 kts 271°
2026-05-04 09:09 50.90127 7.36396 11087 ft 205 kts 271°
2026-05-04 09:09 50.90234 7.34146 10801 ft 204 kts 271°
2026-05-04 09:10 50.90341 7.31908 10517 ft 203 kts 272°
2026-05-04 09:10 50.90446 7.29682 10240 ft 202 kts 272°
2026-05-04 09:10 50.90550 7.27470 9970 ft 201 kts 272°
2026-05-04 09:10 50.90654 7.25263 9660 ft 200 kts 272°
2026-05-04 09:11 50.90756 7.23072 9344 ft 199 kts 272°
2026-05-04 09:11 50.90857 7.20889 9053 ft 199 kts 272°
2026-05-04 09:11 50.90957 7.18757 8996 ft 187 kts 272°
2026-05-04 09:11 50.91048 7.16826 8985 ft 168 kts 272°
2026-05-04 09:12 50.91130 7.15086 8986 ft 153 kts 272°
2026-05-04 09:12 50.91206 7.13270 9001 ft 177 kts 272°
2026-05-04 09:14 50.91956 6.96701 8997 ft 233 kts 272°
2026-05-04 09:14 50.92070 6.94133 8997 ft 234 kts 272°
2026-05-04 09:14 50.92184 6.91546 8997 ft 235 kts 272°
2026-05-04 09:14 50.92298 6.88956 8997 ft 236 kts 272°
2026-05-04 09:15 50.92411 6.86352 8997 ft 237 kts 272°
2026-05-04 09:15 50.92524 6.83748 8998 ft 237 kts 272°
2026-05-04 09:15 50.92637 6.81139 8998 ft 237 kts 272°
2026-05-04 09:15 50.92747 6.78562 8998 ft 237 kts 272°
2026-05-04 09:17 50.93622 6.57639 9001 ft 239 kts 272°
2026-05-04 09:18 50.93730 6.55010 8998 ft 239 kts 272°
2026-05-04 09:18 50.93837 6.52375 8957 ft 241 kts 272°
2026-05-04 09:18 50.93946 6.49681 8504 ft 245 kts 272°
2026-05-04 09:18 50.94057 6.46976 7993 ft 246 kts 272°
2026-05-04 09:19 50.94166 6.44266 7494 ft 246 kts 272°
2026-05-04 09:19 50.94272 6.41551 7004 ft 247 kts 272°
2026-05-04 09:19 50.94379 6.38833 6516 ft 247 kts 273°
2026-05-04 09:19 50.94486 6.36119 6006 ft 246 kts 273°
2026-05-04 09:20 50.94592 6.33406 5509 ft 248 kts 272°
2026-05-04 09:20 50.94698 6.30667 5006 ft 249 kts 272°
2026-05-04 09:20 50.94804 6.27926 4498 ft 248 kts 272°
2026-05-04 09:20 50.94908 6.25210 4028 ft 246 kts 272°
2026-05-04 09:21 50.95007 6.22620 3999 ft 223 kts 272°
2026-05-04 09:21 50.95097 6.20272 3998 ft 206 kts 272°
2026-05-04 09:21 50.95179 6.18054 3995 ft 197 kts 272°
2026-05-04 09:21 50.95257 6.15958 3992 ft 183 kts 272°
2026-05-04 09:22 50.95328 6.14046 3984 ft 164 kts 271°
2026-05-04 09:22 50.95392 6.12331 3987 ft 150 kts 271°
2026-05-04 09:22 50.95449 6.10732 3986 ft 141 kts 270°
2026-05-04 09:22 50.95504 6.09221 3984 ft 135 kts 270°
2026-05-04 09:23 50.95556 6.07757 3987 ft 133 kts 270°
2026-05-04 09:23 50.95608 6.06291 3991 ft 134 kts 270°
2026-05-04 09:23 50.95825 6.04870 3994 ft 137 kts 302°
2026-05-04 09:23 50.96604 6.03941 3857 ft 150 kts 331°
2026-05-04 09:25 51.03362 5.98424 2383 ft 145 kts 310°
2026-05-04 09:25 51.03934 5.97080 2239 ft 147 kts 298°
2026-05-04 09:26 51.04426 5.95730 2372 ft 135 kts 297°
2026-05-04 09:26 51.04888 5.94479 2496 ft 130 kts 299°
2026-05-04 09:26 51.05352 5.93233 2484 ft 132 kts 297°
2026-05-04 09:26 51.05696 5.91927 2503 ft 127 kts 267°
2026-05-04 09:27 51.05246 5.90810 2512 ft 129 kts 203°
2026-05-04 09:27 51.04419 5.90339 2483 ft 125 kts 208°
2026-05-04 09:27 51.03679 5.89663 2483 ft 120 kts 210°
2026-05-04 09:27 51.02980 5.88984 2484 ft 116 kts 210°
2026-05-04 09:28 51.02312 5.88333 2488 ft 112 kts 211°
2026-05-04 09:28 51.01669 5.87675 2485 ft 106 kts 211°
2026-05-04 09:28 51.01058 5.87056 2482 ft 102 kts 211°
2026-05-04 09:28 51.00455 5.86440 2391 ft 104 kts 211°
2026-05-04 09:29 50.99850 5.85827 2244 ft 100 kts 211°
2026-05-04 09:29 50.99289 5.85253 2118 ft 91 kts 211°
2026-05-04 09:29 50.98796 5.84753 2009 ft 79 kts 210°
2026-05-04 09:29 50.98346 5.84293 1899 ft 75 kts 211°
2026-05-04 09:30 50.97913 5.83855 1808 ft 73 kts 211°
2026-05-04 09:30 50.97465 5.83401 1708 ft 80 kts 211°
2026-05-04 09:30 50.96975 5.82900 1589 ft 86 kts 210°
2026-05-04 09:30 50.96466 5.82382 1465 ft 88 kts 211°
2026-05-04 09:31 50.95948 5.81857 1354 ft 90 kts 211°
2026-05-04 09:31 50.95418 5.81318 1228 ft 91 kts 212°
2026-05-04 09:31 50.94888 5.80779 1104 ft 90 kts 212°
2026-05-04 09:31 50.94379 5.80263 989 ft 83 kts 211°
2026-05-04 09:32 50.93923 5.79801 890 ft 73 kts 211°
2026-05-04 09:32 50.93505 5.79359 769 ft 71 kts 211°
2026-05-04 09:34 50.91459 5.77114 378 ft 15 kts 305°
2026-05-04 09:34 50.91482 5.77059 378 ft 12 kts 301°
2026-05-04 09:34 50.91428 5.76954 378 ft 19 kts 212°
2026-05-04 09:34 50.91330 5.76862 378 ft 17 kts 211°
2026-05-04 09:35 50.91336 5.76807 378 ft 10 kts 358°
2026-05-04 09:35 50.91367 5.76801 378 ft 0 kts 346°